World > North America > United States > Missouri > Brumley

Hourly Brumley, MO Regional Weather

Feedback E-mail the Weather

Quick WX

Brumley, MO Weather Maps

°F °C°F °C
Brumley Weather Map
UTC Time: 8/14/2022, 10:17
Your Time:

Brumley, MO Regional Weather

Expires:202208141100;;077359
ASUS43 KEAX 141015
RWREAX

WEATHER ROUNDUP FOR EASTERN KANSAS AND NORTHWEST MISSOURI
NATIONAL WEATHER SERVICE KANSAS CITY/PLEASANT HILL MO
500 AM CDT SUN AUG 14 2022


MOZ041-047>049-056>058-063>065-088>090-097-141100-
...EASTERN AND SOUTHERN MISSOURI...
  
CITY           SKY/WX    TMP DP  RH WIND       PRES   REMARKS
ST. LOUIS INTL PTCLDY    77  62  59 SW8       29.91F                  
SPIRIT OF STL  PTCLDY    75  63  66 SW8       29.89F                  
COLUMBIA       PTCLDY    76  67  73 SW8       29.93F                  
JEFFERSON CITY PTCLDY    75  66  73 CALM      29.93S                  
MEXICO         PTCLDY    68  68 100 SW6       29.91F                  
HANNIBAL       CLOUDY   N/A N/A N/A N7        29.92S                  
ROLLA          CLEAR     72  61  68 SW12      29.97S                  
LEBANON        CLEAR     72  61  68 SW5       29.99F                  
OSAGE BEACH    CLEAR    N/A N/A N/A CALM        N/A                   
SPRINGFIELD    PTCLDY    73  66  78 S6        29.98F                  
BRANSON        PTCLDY    72  55  56 CALM      30.01F                  
JOPLIN         CLEAR     73  68  84 S8        29.98S                  
WEST PLAINS    PTCLDY    70  58  65 SW5       30.01F                  
SIKESTON       MOCLDY    72  64  78 CALM      29.97F                  

$$


SKY/WX - Weather  TMP - Temperature  DP - Dew Point  RH - Humidity
WIND - Wind Direction/Speed PRES - Barometric Pressure VSB - Visibility
WCI - Wind Chill Index E13G22 Wind - East Wind 13 mph/Gusts of 22 mph

Trending Headlines

Brumley Radar Loop



Brumley Quick Facts


National Two Day Weather Forecast


E-mail the Brumley Weather Forecast

Voice your opinion or tell us about page issues...